Regional Weather Roundup
Issued by NWS

Home | Current Version | Previous Version | Text Only | Print | Product List | Glossary Off
Versions: 1 2 3 4 5 6 7 8 9 10 11 12 13 14 15 16 17 18 19 20 21 22 23 24 25 26 27 28 29 30 31 32 33 34 35 36 37 38 39 40 41 42 43 44 45 46 47 48 49 50

000
ASUS43 KLMK 161710
RWRKY
KENTUCKY REGIONAL WEATHER ROUNDUP
NATIONAL WEATHER SERVICE LOUISVILLE KY
100 PM EDT TUE SEP 16 2014

NOTE "FAIR" INDICATES FEW OR NO CLOUDS BELOW 12,000 FEET
WITH NO SIGNIFICANT WEATHER AND/OR OBSTRUCTIONS TO VISIBILITY.

KYZ001>023-026-027-061>063-070>075-161800-
WESTERN AND SOUTH CENTRAL KENTUCKY

CITY           SKY/WX    TMP DP  RH WIND       PRES   REMARKS
PADUCAH        PTSUNNY   69  56  62 N13       30.17S
HENDERSON      CLOUDY    63  52  67 N7        30.17F
OWENSBORO      CLOUDY    65  57  75 N9        30.16F
HOPKINSVILLE   CLOUDY    66  59  77 N9        30.15F
BOWLING GREEN  CLOUDY    65  58  78 CALM      30.14F
GLASGOW        CLOUDY    66  58  76 N8        30.13F
$$

KYZ024-025-028>034-038-045-046-053-161800-
NORTH CENTRAL KENTUCKY

CITY           SKY/WX    TMP DP  RH WIND       PRES   REMARKS
LOUISVILLE/SDF PTSUNNY   69  56  62 NE10      30.14F
LOUISVILLE/LOU PTSUNNY   67  56  67 NE5       30.15F
FORT KNOX      CLOUDY    65  56  74 NE7       30.14S
$$

KYZ035>037-039>044-047>052-055>060-089>105-161800-
NORTHEAST KENTUCKY

CITY           SKY/WX    TMP DP  RH WIND       PRES   REMARKS
LEXINGTON      CLOUDY    66  58  75 NE8       30.14F
COVINGTON      CLOUDY    60  50  69 N5        30.16S
FRANKFORT      CLOUDY    65  57  75 VRB6      30.14F
$$

KYZ054-064>069-076>088-106>120-161800-
SOUTHEAST KENTUCKY

CITY           SKY/WX    TMP DP  RH WIND       PRES   REMARKS
JACKSON        CLOUDY    64  62  93 CALM      30.11F FOG
LONDON         CLOUDY    66  63  90 CALM      30.11F
SOMERSET       NOT AVBL
MIDDLESBORO    CLOUDY    70  64  81 CALM      30.10F
MONTICELLO     CLOUDY    67  65  93 CALM      30.13F
$$




USA.gov is the U.S. government's official web portal to all federal, state and local government web resources and services.